Weather History for K96D - October, 2012

Change the Weather History Date:

Saturday, October 20, 2012

  Actual Average (KGAF) Record (KGAF)
Temperature  
Mean Temperature 46 °F -  
Max Temperature 53 °F 55 °F 77 °F (1978)
Min Temperature 39 °F 34 °F 18 °F (1952)
Degree Days  
Heating Degree Days 19    
Moisture  
Dew Point 43 °F    
Average Humidity 95    
Maximum Humidity 100    
Minimum Humidity 72    
Precipitation  
Precipitation 0.00 in - - ()
Sea Level Pressure  
Sea Level Pressure 29.62 in    
Wind  
Wind Speed 8 mph (SSE)    
Max Wind Speed 23 mph    
Max Gust Speed 26 mph    
Visibility 10 miles    
Events      
Averages and records for this station are not official NWS values.
T = Trace of Precipitation, MM = Missing Value Source: NWS Daily Summary

Daily Weather History Graph

Daily Weather History Graph

Search for Another Location

Airport or City:

Trip Planner

Search our weather history database for the weather conditions in past years. The results will help you decide how hot, cold, wet, or windy it might be!

Date:

Astronomy

Oct. 20, 2012 Rise Set
Actual Time 8:00 AM CDT 6:31 PM CDT
Civil Twilight 7:28 AM CDT 7:03 PM CDT
Nautical Twilight 6:51 AM CDT 7:40 PM CDT
Astronomical Twilight 6:15 AM CDT 8:16 PM CDT
Moon 1:52 PM CDT (10/20) 11:04 PM CDT (10/20)
Length of Visible Light 11h 34m
Length of Day
10h 30m
Waxing Crescent, 34% of the Moon is Illuminated
Oct 20
Waxing Crescent
Oct 21
First Quarter
Oct 29
Full
Nov 6
Last Quarter
Nov 13
New

Hourly Weather History & Observations

Time (CDT) Temp. Windchill Dew Point Humidity Pressure Visibility Wind Dir Wind Speed Gust Speed Precip Events Conditions
12:15 AM 39.2 °F 35.9 °F 39.2 °F 100% 29.70 in 1.5 mi SSE 4.6 mph - N/A   Overcast
12:35 AM 39.2 °F 35.9 °F 39.2 °F 100% 29.70 in 8.0 mi South 4.6 mph - N/A   Overcast
12:55 AM 39.2 °F 35.9 °F 39.2 °F 100% 29.70 in 10.0 mi South 4.6 mph - N/A   Overcast
1:15 AM 39.2 °F 37.0 °F 39.2 °F 100% 29.70 in 10.0 mi SSE 3.5 mph - N/A   Overcast
1:35 AM 39.2 °F - 39.2 °F 100% 29.70 in 10.0 mi Calm Calm - N/A   Overcast
1:55 AM 41.0 °F - 41.0 °F 100% 29.70 in 10.0 mi Calm Calm - N/A   Overcast
2:15 AM 41.0 °F 39.0 °F 41.0 °F 100% 29.70 in 10.0 mi SE 3.5 mph - N/A   Overcast
2:35 AM 41.0 °F 38.0 °F 41.0 °F 100% 29.70 in 10.0 mi SE 4.6 mph - N/A   Overcast
2:55 AM 41.0 °F 37.1 °F 41.0 °F 100% 29.69 in 10.0 mi SE 5.8 mph - N/A   Overcast
3:15 AM 41.0 °F 38.0 °F 41.0 °F 100% 29.69 in 10.0 mi SE 4.6 mph - N/A   Overcast
3:35 AM 41.0 °F 37.1 °F 41.0 °F 100% 29.68 in 5.0 mi SE 5.8 mph - N/A   Overcast
3:55 AM 41.0 °F 36.4 °F 41.0 °F 100% 29.68 in 4.0 mi SSE 6.9 mph - N/A   Overcast
4:15 AM 41.0 °F 35.8 °F 41.0 °F 100% 29.67 in 3.0 mi SSE 8.1 mph - N/A   Overcast
4:35 AM 41.0 °F 36.4 °F 41.0 °F 100% 29.66 in 4.0 mi SSE 6.9 mph - N/A   Overcast
4:55 AM 41.0 °F 36.4 °F 41.0 °F 100% 29.66 in 10.0 mi SSE 6.9 mph - N/A   Overcast
5:15 AM 41.0 °F 36.4 °F 41.0 °F 100% 29.65 in 8.0 mi SSE 6.9 mph - N/A   Overcast
5:35 AM 41.0 °F 35.8 °F 41.0 °F 100% 29.65 in 10.0 mi SSE 8.1 mph - N/A   Overcast
5:55 AM 41.0 °F 35.8 °F 41.0 °F 100% 29.65 in 10.0 mi SSE 8.1 mph - N/A   Overcast
6:15 AM 41.0 °F 36.4 °F 41.0 °F 100% 29.64 in 10.0 mi SSE 6.9 mph - N/A   Overcast
6:35 AM 41.0 °F 34.7 °F 41.0 °F 100% 29.64 in 10.0 mi South 10.4 mph 18.4 mph N/A   Overcast
6:55 AM 41.0 °F 35.8 °F 41.0 °F 100% 29.64 in 10.0 mi South 8.1 mph 16.1 mph N/A   Overcast
7:15 AM 41.0 °F 36.4 °F 41.0 °F 100% 29.65 in 10.0 mi SSW 6.9 mph - N/A   Overcast
7:35 AM 41.0 °F 35.2 °F 41.0 °F 100% 29.65 in 10.0 mi South 9.2 mph - N/A   Overcast
7:55 AM 41.0 °F 33.9 °F 41.0 °F 100% 29.64 in 10.0 mi South 12.7 mph 18.4 mph N/A   Overcast
8:15 AM 41.0 °F 33.9 °F 41.0 °F 100% 29.64 in 10.0 mi South 12.7 mph 18.4 mph N/A   Overcast
8:35 AM 41.0 °F 34.3 °F 41.0 °F 100% 29.63 in 10.0 mi South 11.5 mph - N/A   Overcast
8:55 AM 41.0 °F 33.1 °F 41.0 °F 100% 29.62 in 10.0 mi SSE 15.0 mph 18.4 mph N/A   Overcast
9:15 AM 41.0 °F 33.5 °F 41.0 °F 100% 29.62 in 10.0 mi SSE 13.8 mph - N/A   Overcast
9:35 AM 41.0 °F 34.7 °F 41.0 °F 100% 29.62 in 10.0 mi South 10.4 mph - N/A   Overcast
9:55 AM 41.0 °F 33.5 °F 41.0 °F 100% 29.62 in 10.0 mi South 13.8 mph 18.4 mph N/A   Overcast
10:15 AM 41.0 °F 32.8 °F 41.0 °F 100% 29.61 in 10.0 mi South 16.1 mph 23.0 mph N/A   Overcast
10:35 AM 41.0 °F 32.8 °F 41.0 °F 100% 29.61 in 10.0 mi SSE 16.1 mph - N/A   Overcast
10:55 AM 42.8 °F 36.6 °F 42.8 °F 100% 29.61 in 10.0 mi South 11.5 mph 16.1 mph N/A   Overcast
11:15 AM 44.6 °F 38.4 °F 42.8 °F 93% 29.62 in 10.0 mi South 12.7 mph 23.0 mph N/A   Overcast
11:35 AM 44.6 °F 38.4 °F 42.8 °F 93% 29.61 in 10.0 mi South 12.7 mph 23.0 mph N/A   Overcast
11:55 AM 44.6 °F 37.2 °F 42.8 °F 93% 29.60 in 10.0 mi South 17.3 mph 24.2 mph N/A   Overcast
12:15 PM 46.4 °F 40.4 °F 42.8 °F 87% 29.60 in 10.0 mi South 13.8 mph 19.6 mph N/A   Overcast
12:35 PM 46.4 °F 40.4 °F 44.6 °F 93% 29.59 in 10.0 mi South 13.8 mph 26.5 mph N/A   Mostly Cloudy
12:55 PM 48.2 °F - 44.6 °F 87% 29.58 in 10.0 mi South 15.0 mph 21.9 mph N/A   Mostly Cloudy
1:15 PM 48.2 °F - 44.6 °F 87% 29.57 in 10.0 mi SSE 16.1 mph 21.9 mph N/A   Scattered Clouds
1:35 PM 50.0 °F - 44.6 °F 82% 29.56 in 10.0 mi SSE 23.0 mph 26.5 mph N/A   Scattered Clouds
1:55 PM 50.0 °F - 44.6 °F 82% 29.56 in 10.0 mi South 13.8 mph - N/A   Partly Cloudy
2:15 PM 50.0 °F - 44.6 °F 82% 29.56 in 10.0 mi SSE 15.0 mph 25.3 mph N/A   Clear
2:35 PM 50.0 °F - 46.4 °F 87% 29.55 in 10.0 mi SSE 16.1 mph 20.7 mph N/A   Scattered Clouds
2:55 PM 51.8 °F - 46.4 °F 82% 29.55 in 10.0 mi SSE 12.7 mph 20.7 mph N/A   Partly Cloudy
3:15 PM 53.6 °F - 46.4 °F 77% 29.54 in 10.0 mi SSE 18.4 mph 24.2 mph N/A   Partly Cloudy
3:35 PM 51.8 °F - 46.4 °F 82% 29.55 in 10.0 mi SSE 16.1 mph 21.9 mph N/A   Clear
4:15 PM 53.6 °F - 44.6 °F 72% 29.55 in 10.0 mi South 15.0 mph 21.9 mph N/A   Partly Cloudy
4:35 PM 51.8 °F - 44.6 °F 76% 29.55 in 10.0 mi South 10.4 mph - N/A   Partly Cloudy
4:55 PM 51.8 °F - 46.4 °F 82% 29.55 in 10.0 mi SSE 13.8 mph 20.7 mph N/A   Partly Cloudy
5:15 PM 50.0 °F - 46.4 °F 87% 29.55 in 10.0 mi SSE 13.8 mph - N/A   Partly Cloudy
5:35 PM 50.0 °F - 46.4 °F 87% 29.55 in 10.0 mi SSE 13.8 mph 18.4 mph N/A   Partly Cloudy
5:55 PM 50.0 °F - 46.4 °F 87% 29.56 in 10.0 mi South 13.8 mph 17.3 mph N/A   Mostly Cloudy
6:15 PM 50.0 °F - 46.4 °F 87% 29.56 in 10.0 mi SSE 10.4 mph - N/A   Mostly Cloudy
6:35 PM 50.0 °F - 46.4 °F 87% 29.57 in 10.0 mi SSE 9.2 mph - N/A   Mostly Cloudy
6:55 PM 48.2 °F - 48.2 °F 100% 29.57 in 10.0 mi SSE 10.4 mph 18.4 mph N/A   Overcast
7:15 PM 48.2 °F - 48.2 °F 100% 29.57 in 10.0 mi SSE 13.8 mph - N/A   Overcast
7:35 PM 46.4 °F 41.1 °F 46.4 °F 100% 29.57 in 10.0 mi SSE 11.5 mph - N/A   Mostly Cloudy
8:15 PM 46.4 °F 41.1 °F 46.4 °F 100% 29.58 in 10.0 mi SSE 11.5 mph - N/A   Mostly Cloudy
8:35 PM 46.4 °F 41.1 °F 46.4 °F 100% 29.58 in 10.0 mi SSE 11.5 mph - N/A   Overcast
8:55 PM 46.4 °F 40.7 °F 46.4 °F 100% 29.59 in 10.0 mi South 12.7 mph - N/A   Mostly Cloudy
9:15 PM 46.4 °F 41.5 °F 46.4 °F 100% 29.60 in 10.0 mi SSE 10.4 mph - N/A   Mostly Cloudy
9:35 PM 46.4 °F 41.9 °F 46.4 °F 100% 29.60 in 10.0 mi SSE 9.2 mph - N/A   Mostly Cloudy
9:55 PM 46.4 °F 41.9 °F 46.4 °F 100% 29.59 in 10.0 mi SSE 9.2 mph - N/A   Mostly Cloudy
10:15 PM 46.4 °F 42.9 °F 46.4 °F 100% 29.61 in 10.0 mi South 6.9 mph - N/A   Overcast
10:35 PM 46.4 °F 43.5 °F 46.4 °F 100% 29.62 in 10.0 mi SE 5.8 mph - N/A   Overcast
10:55 PM 46.4 °F 42.4 °F 46.4 °F 100% 29.61 in 10.0 mi SSE 8.1 mph - N/A   Mostly Cloudy
11:35 PM 44.6 °F 41.4 °F 44.6 °F 100% 29.60 in 10.0 mi SE 5.8 mph - N/A   Mostly Cloudy
11:55 PM 44.6 °F 40.7 °F 44.6 °F 100% 29.60 in 10.0 mi SSE 6.9 mph - N/A   Mostly Cloudy